Погода Чулпаново

Погода Чулпаново : погода сейчас, прогноз погоды и архив. Всё, что Вы хотите узнать о погоде Чулпаново!

Поиск расширенной информации на нашем сайте:

Полезная информация: Читайте болюсы хуато инструкция здесь!

Другие новости

Новости СМИ2

Главная страница сайта

Новости сайта

03.07.2017

Напоминаем, что на нашем специализированном сайте Метеоцентр.Азия вы можете получить высокодетализированные автоматические прогнозы погоды по пунктам России, СНГ и мира в авиационном формате (включающие направление и скорость ветра, видимость, явления погоды, количество и форму облачности, нижнюю и верхнюю границу облачности).

Рекомендуем: новости Бердичева

Погода Чулпаново - сегодня

Время (UTC), дата Ветер
(°,м/с) 
Видим.   Явления Облачность Т
(°С)
Тd
(°С)
f(%) Тe
(°С)
Pmin
(гПа)
dP
(гПа)
Po
(мм)
O2
(г/м3)
Тmin Tmax R s Состояние
почвы
18 17.11.17 240 (ЮЗ) 20000 м    10/0 средняя 
[Ac As]
+0.8 -2.3 80 -1  1022.2  759  305           
21 17.11.17 200 (Ю) 20000 м    10/0 средняя 
[Ac As]
+0.3 -2.5 81 -1  1022.6  0.4  760  306           
00 18.11.17 210 (ЮЗ) 20000 м    10/0 средняя 
[Ac As]
+0.6 -1.4 86 -1  1022.8  0.1  760  306           
03 18.11.17 190 (Ю) 20000 м    10/0 средняя, верхняя 
[Ac As|Ci sp]
+0.3 -1.6 87 -3  1021.6  -1.2  759  306  +0.2         
06 18.11.17 210 (ЮЗ) 20000 м    10/8 600 м средняя 
[Sc|Ac trans]
+0.7 -2.4 80 -2  1021.4  0.1  759  305  -0.3         
09 18.11.17 230 (ЮЗ) 4{10}  20000 м    10/5 600 м средняя 
[Sc|Ac As]
+1.9 -2.9 70 1021.8  0.5  759  304           
12 18.11.17 210 (ЮЗ) 20000 м    10/0 средняя 
[Ac As]
+1.4 -3.2 71 -1  1022.1  0.2  759  305           
15 18.11.17 180 (Ю) 20000 м    10/0 средняя 
[Ac As]
+0.5 -1.8 85 -2  1022.9  0.7  760  306    +2.3       
18 18.11.17 190 (Ю) 20000 м    10/0 средняя 
[Ac As]
+0.8 -1.6 84 -2  1023.5  0.6  760  306           
21 18.11.17 180 (Ю) 20000 м    10/0 средняя 
[Ac As]
+0.9 -1.7 83 -1  1024.3  0.8  761  306           
00 19.11.17 190 (Ю) 20000 м    10/0 средняя 
[Ac As]
+0.8 -1.5 85 -2  1024.2  0.1  761  306           
03 19.11.17 180 (Ю) 20000 м    10/0 средняя 
[Ac As]
+0.2 -1.2 90 -2  1024.2  761  306  +0.2         
06 19.11.17 180 (Ю) 20000 м    10/0 средняя, верхняя 
[Ac As|Ci sp]
+0.7 -1.5 85 -2  1025.1  0.9  761  306  +0.1         
09 19.11.17 150 (ЮВ) 6{10}  20000 м    10/0 средняя 
[Ac As]
+2.1 -1.1 79 -1  1024.6  -0.4  761  305           
12 19.11.17 140 (ЮВ) 20000 м    10/0 средняя, верхняя 
[Ac As|Ci sp]
+1.5 -1.3 82 -1  1023.9  -0.8  761  305           
15 19.11.17 140 (ЮВ) 20000 м    8/0 средняя, верхняя 
[Ac trans|Ci fib]
+0.5 -1.9 84 -2  1023.2  -0.7  760  306    +2.4       
18 19.11.17 160 (Ю) 20000 м    10/0 средняя 
[Ac As]
+0.5 -1.9 84 -3  1021.9  -1.3  759  306           
21 19.11.17 170 (Ю) 20000 м    10/0 средняя 
[Ac As]
+0.5 -1.8 85 -2  1021.7  -0.2  759  305           
00 20.11.17 150 (ЮВ) 20000 м    10/0 средняя 
[Ac As]
+0.7 -1.4 86 -1  1021  -0.6  758  305           
03 20.11.17 150 (ЮВ) 20000 м  слаб. дождь  10/0 средняя 
[As op]
+1.1 -0.4 90 -2  1019.6  -1.4  757  304  +0.2    0.0     
06 20.11.17 170 (Ю) 4{10}  4000 м  слаб. дождь  10/10 300 м 
[Ns]
+1.4 +0.4 93 -1  1019.6  -0.1  757  304           
09 20.11.17 160 (Ю) 20000 м  {дождь}  10/0 средняя 
[Ac As]
+2.3 +0.6 88 1019.9  0.3  758  303           
12 20.11.17 160 (Ю) 20000 м  {дождь}  10/0 средняя 
[Ac As]
+3.2 +0.7 84 +1  1019.5  -0.3  757  302           
15 20.11.17 150 (ЮВ) 20000 м    10/0 средняя 
[Ac As]
+3.4 +0.6 82 +1  1019.7  0.2  758  301    +3.4     
18 20.11.17 150 (ЮВ) 20000 м    10/0 средняя 
[Ac As]
+3 +0 81 +2  1019.5  -0.3  757  302           
Время (UTC), дата Ветер
(°,м/с) 
Видим.   Явления Облачность Т
(°С)
Тd
(°С)
f(%) Тe
(°С)
Pmin
(гПа)
dP
(гПа)
Po
(мм)
O2
(г/м3)
Тmin Tmax R s Состояние
почвы

Для получения пояснительной информации подведите курсор к названию столбца.

ПОГОДА Чулпаново - архив

Всё, что Вы хотите узнать о погоде Чулпаново - удобно и подробно!

Выберите нужную дату (начиная с 1 января 2015* года) и нажмите кнопку "Найти".
Будут отображены архивные сводки погоды по пункту Чулпаново, начиная с указанной даты.


Отображать данные в формате CSV (для использования в таблицах Excel)


Внимание! Наш архив погоды предназначен исключительно для личного некоммерческого использования в познавательных целях. Если Вам необходимы официальные справки о состоянии погоды (для производственных, юридических, коммерческих и т.п. целей), обращайтесь в органы Росгидромета.

*Примечание: данная дата относится к архиву по метеостанциям СССР (Россия, СНГ, Балтия).
Архив по метеостанциям Зарубежной Европы и Азии (кроме Китая) хранится 10 дней, по другим регионам земного шара (Китай, Африка, Америка, Австралия, Океания) - 1 день.

Чулпаново - район местоположения метеостанции


Название, широта, долгота, высота метеостанции:
Чулпаново 54.5°ш. 50.4°д. 78 м над ур. моря [Российская Федерация]

Дополнительная информация

В oтличие oт бoльшинства пoгoдных сайтoв мы публикуем пoдрoбную метеoинфoрмацию в детальнoм прoфессиoнальнoм фoрмате.

Характеристики температуры и влажнoсти вoздуха измеряются на высoте 2 м в тени вдали oт зданий и деревьев.
Скoрoсть ветра измеряется на высoте 10 м (на урoвне рoста челoвека скoрoсть ветра ниже в 1.5-2 раза). Если метеoстанция нахoдится в гoрoде или в лесу, тo скoрoсть ветра занижена на 2-4 м/с пo сравнению с oткрытым местoм. Скoрoсть ветра над акватoриями крупных рек и oзёр, а также на вершинах хoлмoв на 2-5 м/с выше, чем в oбычных услoвиях.
Атмoсфернoе давление в разных тoчках местнoсти мoжет значительнo oтличаться oт давления на метеoстанции, в зависимoсти oт услoвий рельефа (при пoдъёме на 10 м давление пoнижается примернo на 1 мм рт.ст.).